カタログに戻る

STARLINK-4435

運用中通信SSO
NORAD 53502·PAYLOAD·🇺🇸 United States

打ち上げ Aug 12, 2022 から Vandenberg Space Force Base

Loading…

次のパス (今後24時間)

TLE

最新Source: CelesTrak SupGP

元期: Sep 14, 2026, 22:01 UTC

1 53502C 22099AP  26257.91784722 -.00038713  00000+0 -10740-2 0  2573
2 53502  97.4975  26.3537 0001044  96.6612 250.4761 15.36993759    16

AllMySatでSTARLINK-4435をリアルタイム追跡

Download on the App Store